Location: Meanaryar
(48.4161°N, 4.7315°W)
Time: 01:44:34
(UTC+00:00)

Cosmos 1269 Rocket - Pass Details

Date: 18 September 2020
Orbit: 772 x 779 km, 74.1° (Epoch: 31 October)

Event Time Altitude Azimuth Distance (km) Brightness Sun altitude
Rises 21:14:12 0° 335° (NNW) 3,273 8.2 -27.0°
Reaches altitude 10° 21:16:35 10° 334° (NNW) 2,342 7.3 -27.3°
Enters shadow 21:21:48 75° 262° (W) 812 4.1 -28.0°
